Station Historical Data
Daily Summary for September 1, 2017 Units:  Metric    English   Both
« Previous Day
Next Day »
Daily Weekly Monthly Yearly Custom
  High: Low: Average:
Temperature: 27.3 °C 17.6 °C 23.3 °C
Dew Point: 21.5 °C 15.9 °C 19.5 °C
Humidity: 93% 61% 80%
Wind Speed: 1.6km/h 0km/h 0.3km/h
Wind Gust: 9.7km/h - -
Wind- - WNW
Pressure: 1016.5 hPa 1010.4 hPa -
Precipitation: 8.64 mm    
Historical Graphs
 
 
Tabular Data for September 1, 2017
Time Temperature Dew Point Pressure Wind Wind Speed Wind Gust Humidity Rainfall Rate (Hourly) Conditions
00:00 22.8 °C 20.7 °C 1013.1 hPa Calm   3.2 km/h 88% 0 mm RA
00:10 22.8 °C 20.7 °C 1013.1 hPa Calm   1.6 km/h 88% 0 mm SCT
00:20 22.7 °C 20.6 °C 1013.1 hPa Calm   1.6 km/h 88% 0 mm SCT
00:25 22.7 °C 20.6 °C 1013.4 hPa Calm   1.6 km/h 88% 0 mm SCT
00:30 22.7 °C 20.6 °C 1013.4 hPa Calm   1.6 km/h 88% 0 mm SCT
00:40 22.7 °C 20.6 °C 1013.4 hPa Calm   1.6 km/h 88% 0 mm SCT
00:45 22.7 °C 20.8 °C 1013.4 hPa Calm     89% 0 mm SCT
00:50 22.7 °C 20.7 °C 1013.1 hPa Calm     89% 0 mm SCT
00:55 22.6 °C 20.7 °C 1013.1 hPa Calm     89% 0 mm SCT
01:00 22.6 °C 20.7 °C 1013.1 hPa Calm   1.6 km/h 89% 0 mm SCT
01:10 22.6 °C 20.7 °C 1012.8 hPa Calm   3.2 km/h 89% 0 mm BKN
01:15 22.6 °C 20.7 °C 1012.8 hPa Calm   1.6 km/h 89% 0 mm BKN
01:20 22.6 °C 20.7 °C 1012.8 hPa Calm     89% 0 mm SCT
01:25 22.6 °C 20.7 °C 1012.8 hPa Calm   1.6 km/h 89% 0 mm SCT
01:30 22.6 °C 20.7 °C 1012.4 hPa Calm   1.6 km/h 89% 0 mm SCT
01:40 22.6 °C 20.7 °C 1012.4 hPa Calm     89% 0 mm SCT
01:45 22.6 °C 20.7 °C 1012.4 hPa Calm   1.6 km/h 89% 0 mm SCT
01:50 22.6 °C 20.7 °C 1012.4 hPa Calm   1.6 km/h 89% 0 mm SCT
01:55 22.6 °C 20.7 °C 1012.4 hPa Calm   1.6 km/h 89% 0 mm SCT
02:00 22.7 °C 20.8 °C 1012.4 hPa Calm   1.6 km/h 89% 0 mm SCT
02:05 22.7 °C 20.8 °C 1012.4 hPa Calm   3.2 km/h 89% 0 mm SCT
02:10 22.7 °C 20.6 °C 1012.4 hPa NW 1.6 km/h 3.2 km/h 88% 0 mm SCT
02:15 22.8 °C 20.7 °C 1012.4 hPa Calm   1.6 km/h 88% 0 mm SCT
02:20 22.8 °C 20.7 °C 1012.4 hPa Calm   1.6 km/h 88% 0 mm BKN
02:25 22.8 °C 20.7 °C 1012.4 hPa Calm   1.6 km/h 88% 0 mm BKN
02:30 22.8 °C 20.7 °C 1012.4 hPa Calm   1.6 km/h 88% 0 mm BKN
02:40 22.8 °C 20.7 °C 1012.1 hPa Calm   3.2 km/h 88% 0 mm BKN
02:45 22.8 °C 20.6 °C 1012.1 hPa Calm   1.6 km/h 87% 0 mm BKN
02:50 22.8 °C 20.5 °C 1012.1 hPa NW 1.6 km/h 3.2 km/h 87% 0 mm BKN
02:55 22.8 °C 20.7 °C 1012.1 hPa Calm   1.6 km/h 88% 0 mm BKN
03:00 22.8 °C 20.5 °C 1012.1 hPa Calm   3.2 km/h 87% 0 mm BKN
03:05 22.8 °C 20.5 °C 1012.1 hPa NW 1.6 km/h 3.2 km/h 87% 0 mm SCT
03:10 22.8 °C 20.6 °C 1012.1 hPa Calm   3.2 km/h 87% 0 mm SCT
03:15 22.8 °C 20.5 °C 1012.1 hPa Calm   1.6 km/h 87% 0 mm SCT
03:20 22.8 °C 20.6 °C 1011.7 hPa Calm   3.2 km/h 87% 0 mm SCT
03:25 22.8 °C 20.6 °C 1011.7 hPa Calm   3.2 km/h 87% 0 mm SCT
03:30 22.8 °C 20.5 °C 1011.7 hPa NW 1.6 km/h 1.6 km/h 87% 0 mm SCT
03:40 22.8 °C 20.5 °C 1011.4 hPa Calm   1.6 km/h 87% 0 mm SCT
03:45 22.8 °C 20.6 °C 1011.4 hPa Calm   3.2 km/h 87% 0 mm SCT
03:50 22.8 °C 20.6 °C 1011.4 hPa NNW 1.6 km/h 3.2 km/h 87% 0 mm SCT
03:55 22.8 °C 20.6 °C 1011.1 hPa Calm   3.2 km/h 87% 0 mm SCT
04:00 22.8 °C 20.6 °C 1011.1 hPa Calm   3.2 km/h 87% 0 mm SCT
04:05 22.8 °C 20.6 °C 1011.1 hPa Calm   3.2 km/h 87% 0 mm SCT
04:10 22.8 °C 20.3 °C 1011.1 hPa NNW 1.6 km/h 4.8 km/h 86% 0 mm SCT
04:15 22.8 °C 20.4 °C 1011.1 hPa NNW 1.6 km/h 3.2 km/h 86% 0 mm SCT
04:25 22.8 °C 20.4 °C 1011.1 hPa Calm   3.2 km/h 86% 0 mm SCT
04:30 22.8 °C 20.4 °C 1011.1 hPa Calm   1.6 km/h 86% 0 mm SCT
04:35 22.8 °C 20.5 °C 1011.1 hPa Calm   3.2 km/h 87% 0 mm SCT
04:40 22.8 °C 20.5 °C 1010.7 hPa Calm   3.2 km/h 87% 0 mm SCT
04:45 22.8 °C 20.5 °C 1010.7 hPa Calm   3.2 km/h 87% 0 mm SCT
04:50 22.8 °C 20.3 °C 1010.4 hPa WNW 1.6 km/h 8 km/h 86% 0 mm SCT
04:55 22.8 °C 20.4 °C 1010.4 hPa Calm   3.2 km/h 86% 0 mm SCT
05:00 22.8 °C 20.4 °C 1010.4 hPa Calm   4.8 km/h 86% 0 mm SCT
05:05 22.8 °C 20.3 °C 1010.7 hPa Calm   3.2 km/h 86% 0 mm SCT
05:10 22.7 °C 20.4 °C 1010.7 hPa Calm   1.6 km/h 87% 0 mm SCT
05:15 22.7 °C 20.4 °C 1010.7 hPa Calm   1.6 km/h 87% 0 mm SCT
05:20 22.7 °C 20.4 °C 1010.4 hPa NW 1.6 km/h 4.8 km/h 87% 0 mm FEW
05:25 22.7 °C 20.4 °C 1010.4 hPa Calm   1.6 km/h 87% 0 mm FEW
05:30 22.7 °C 20.4 °C 1010.4 hPa Calm   3.2 km/h 87% 0 mm FEW
05:35 22.7 °C 20.4 °C 1010.7 hPa NW 1.6 km/h 4.8 km/h 87% 0 mm FEW
05:45 22.8 °C 20.5 °C 1010.7 hPa NW 1.6 km/h 3.2 km/h 87% 0 mm FEW
05:50 22.8 °C 20.3 °C 1010.7 hPa Calm   4.8 km/h 86% 0 mm SCT
05:55 22.8 °C 20.4 °C 1010.7 hPa Calm   3.2 km/h 86% 0 mm SCT
06:00 22.8 °C 20.4 °C 1010.7 hPa Calm   1.6 km/h 86% 0 mm SCT
06:05 22.8 °C 20.4 °C 1011.1 hPa Calm   1.6 km/h 86% 0 mm BKN
06:10 22.8 °C 20.5 °C 1011.1 hPa Calm   1.6 km/h 87% 0 mm BKN
06:15 22.8 °C 20.5 °C 1011.1 hPa Calm   3.2 km/h 87% 0 mm BKN
06:20 22.8 °C 20.3 °C 1011.1 hPa Calm   1.6 km/h 86% 0 mm BKN
06:25 22.8 °C 20.4 °C 1010.7 hPa Calm   4.8 km/h 86% 0 mm BKN
06:30 22.8 °C 20.4 °C 1010.7 hPa Calm   3.2 km/h 86% 0 mm BKN
06:35 22.9 °C 20.4 °C 1010.7 hPa Calm   3.2 km/h 86% 0 mm BKN
06:40 22.9 °C 20.4 °C 1010.7 hPa Calm   3.2 km/h 86% 0 mm BKN
06:45 22.9 °C 20.4 °C 1010.7 hPa Calm   3.2 km/h 86% 0 mm BKN
06:50 22.9 °C 20.5 °C 1011.1 hPa WNW 1.6 km/h 3.2 km/h 86% 0 mm BKN
06:55 22.9 °C 20.4 °C 1011.1 hPa NW 1.6 km/h 4.8 km/h 86% 0 mm BKN
07:00 22.9 °C 20.5 °C 1010.7 hPa Calm   3.2 km/h 86% 0 mm BKN
07:05 22.9 °C 20.4 °C 1010.7 hPa Calm   4.8 km/h 86% 0 mm BKN
07:10 22.9 °C 20.5 °C 1010.7 hPa NW 1.6 km/h 3.2 km/h 86% 0 mm BKN
07:20 22.9 °C 20.5 °C 1011.1 hPa Calm   4.8 km/h 86% 0 mm OVC
07:25 23 °C 20.6 °C 1011.1 hPa NW 1.6 km/h 3.2 km/h 86% 0 mm OVC
07:35 23 °C 20.6 °C 1011.1 hPa NW 1.6 km/h 4.8 km/h 86% 0 mm -RA
07:40 23 °C 20.6 °C 1010.7 hPa NW 1.6 km/h 4.8 km/h 86% 0 mm -RA
07:45 23 °C 20.6 °C 1010.7 hPa Calm   4.8 km/h 86% 0 mm -RA
07:50 23 °C 20.6 °C 1011.1 hPa Calm   3.2 km/h 86% 0 mm -RA
07:55 23 °C 20.6 °C 1011.1 hPa Calm   3.2 km/h 86% 0 mm -RA
08:00 23.1 °C 20.6 °C 1011.1 hPa WNW 1.6 km/h 3.2 km/h 86% 0 mm -RA
08:05 23.1 °C 20.6 °C 1011.1 hPa Calm   3.2 km/h 86% 0 mm -RA
08:10 23.1 °C 20.6 °C 1011.1 hPa NW 1.6 km/h 3.2 km/h 86% 0 mm -RA
08:15 23 °C 20.6 °C 1011.1 hPa Calm   3.2 km/h 86% 0 mm -RA
08:20 22.9 °C 20.7 °C 1011.1 hPa WNW 1.6 km/h 4.8 km/h 87% 0 mm -RA
08:25 22.9 °C 20.6 °C 1011.1 hPa Calm   3.2 km/h 87% 0 mm -RA
08:30 22.9 °C 20.7 °C 1011.1 hPa Calm   3.2 km/h 87% 0 mm -RA
08:35 23 °C 20.7 °C 1011.1 hPa Calm   4.8 km/h 87% 0 mm -RA
08:40 23 °C 20.7 °C 1011.1 hPa NW 1.6 km/h 4.8 km/h 87% 0 mm -RA
08:45 23.1 °C 20.7 °C 1011.4 hPa NW 1.6 km/h 3.2 km/h 87% 0 mm -RA
08:50 23 °C 20.9 °C 1011.1 hPa Calm   3.2 km/h 88% 0 mm -RA
08:55 23 °C 21.1 °C 1011.1 hPa Calm   4.8 km/h 89% 0.76 mm -RA
09:00 22.8 °C 20.8 °C 1011.4 hPa Calm   1.6 km/h 89% 2.79 mm -RA
09:05 22.6 °C 20.8 °C 1011.7 hPa Calm   1.6 km/h 90% 2.54 mm -RA
09:10 22.3 °C 20.6 °C 1011.7 hPa Calm   1.6 km/h 90% 1.52 mm -RA
09:15 22.1 °C 20.6 °C 1011.7 hPa Calm   1.6 km/h 91% 0.25 mm -RA
09:20 21.9 °C 20.4 °C 1011.7 hPa Calm   8 km/h 91% 0 mm -RA
09:30 21.6 °C 20.2 °C 1012.1 hPa Calm   1.6 km/h 92% 0 mm -RA
09:40 21.5 °C 20.2 °C 1012.1 hPa Calm   4.8 km/h 92% 0 mm -RA
09:45 21.7 °C 20.5 °C 1012.1 hPa Calm   1.6 km/h 93% 0 mm -RA
09:50 21.8 °C 20.6 °C 1012.1 hPa Calm   1.6 km/h 93% 0 mm BKN
09:55 22.1 °C 20.9 °C 1012.1 hPa NW 1.6 km/h 3.2 km/h 93% 0 mm BKN
10:00 22.3 °C 21.1 °C 1012.1 hPa Calm   3.2 km/h 93% 0 mm BKN
10:05 22.5 °C 21.1 °C 1012.1 hPa Calm   3.2 km/h 92% 0 mm BKN
10:10 22.6 °C 20.8 °C 1012.1 hPa Calm   3.2 km/h 90% 0 mm BKN
10:15 22.7 °C 21.1 °C 1012.1 hPa Calm   3.2 km/h 91% 0 mm BKN
10:20 22.8 °C 21.3 °C 1012.1 hPa Calm   3.2 km/h 91% 0 mm SCT
10:25 22.9 °C 21.2 °C 1012.1 hPa Calm   3.2 km/h 90% 0 mm SCT
10:30 23.1 °C 21.4 °C 1012.1 hPa Calm   1.6 km/h 90% 0 mm SCT
10:35 23.2 °C 21.5 °C 1012.4 hPa Calm   1.6 km/h 90% 0 mm SCT
10:40 23.4 °C 21.5 °C 1012.4 hPa NNW 1.6 km/h 3.2 km/h 89% 0 mm SCT
10:45 23.6 °C 21.3 °C 1012.4 hPa Calm   3.2 km/h 87% 0 mm SCT
10:50 23.7 °C 21.1 °C 1012.4 hPa Calm   1.6 km/h 85% 0 mm SCT
10:55 23.9 °C 20.8 °C 1012.4 hPa Calm   1.6 km/h 83% 0 mm SCT
11:00 24.1 °C 20.8 °C 1012.4 hPa Calm   3.2 km/h 82% 0 mm SCT
11:05 24.2 °C 20.8 °C 1012.4 hPa Calm   1.6 km/h 81% 0 mm SCT
11:10 24.4 °C 21.4 °C 1012.4 hPa Calm   1.6 km/h 83% 0 mm SCT
11:15 24.7 °C 20.9 °C 1012.4 hPa Calm   3.2 km/h 80% 0 mm SCT
11:20 24.6 °C 20.7 °C 1012.4 hPa Calm   3.2 km/h 79% 0 mm BKN
11:25 24.6 °C 20.4 °C 1012.4 hPa Calm   1.6 km/h 78% 0 mm BKN
11:30 24.7 °C 20.4 °C 1012.4 hPa NNW 1.6 km/h 8 km/h 77% 0 mm BKN
11:35 24.8 °C 20.3 °C 1012.4 hPa Calm   4.8 km/h 76% 0 mm BKN
11:40 24.9 °C 20 °C 1012.4 hPa North 1.6 km/h 8 km/h 74% 0 mm BKN
11:45 25.1 °C 20.2 °C 1012.4 hPa Calm   3.2 km/h 74% 0 mm BKN
11:50 25.3 °C 20.2 °C 1012.4 hPa South 1.6 km/h 8 km/h 73% 0 mm BKN
11:55 25.5 °C 19.8 °C 1012.4 hPa NNW 1.6 km/h 3.2 km/h 71% 0 mm BKN
12:00 25.6 °C 20.2 °C 1012.4 hPa NNW 1.6 km/h 3.2 km/h 72% 0 mm BKN
12:05 25.9 °C 20 °C 1012.4 hPa WNW 1.6 km/h 3.2 km/h 70% 0 mm BKN
12:10 26.2 °C 20 °C 1012.1 hPa WNW 1.6 km/h 3.2 km/h 69% 0 mm BKN
12:15 26.4 °C 20.2 °C 1012.1 hPa Calm   4.8 km/h 69% 0 mm BKN
12:20 26.4 °C 20.1 °C 1012.1 hPa Calm   3.2 km/h 68% 0 mm BKN
12:25 26.5 °C 19.6 °C 1012.1 hPa SSE 1.6 km/h 4.8 km/h 66% 0 mm BKN
12:30 26.4 °C 19.8 °C 1012.1 hPa NNW 1.6 km/h 3.2 km/h 67% 0 mm BKN
12:35 26.5 °C 20.1 °C 1012.1 hPa NW 1.6 km/h 8 km/h 68% 0 mm BKN
12:40 26.9 °C 20.3 °C 1012.1 hPa Calm   1.6 km/h 67% 0 mm BKN
12:45 27.2 °C 19.5 °C 1012.1 hPa North 1.6 km/h 4.8 km/h 63% 0 mm BKN
12:50 27 °C 19.1 °C 1012.1 hPa Calm   4.8 km/h 62% 0 mm BKN
12:55 26.9 °C 19.8 °C 1012.1 hPa ENE 1.6 km/h 8 km/h 65% 0 mm BKN
13:00 26.9 °C 20 °C 1012.1 hPa Calm   3.2 km/h 66% 0 mm BKN
13:05 26.8 °C 19.9 °C 1012.1 hPa WNW 1.6 km/h 3.2 km/h 66% 0 mm BKN
13:10 26.7 °C 19.3 °C 1012.1 hPa NW 1.6 km/h 4.8 km/h 64% 0 mm BKN
13:15 26.6 °C 19.7 °C 1012.1 hPa Calm   3.2 km/h 66% 0 mm BKN
13:20 26.6 °C 19.7 °C 1012.1 hPa Calm   3.2 km/h 66% 0 mm BKN
13:25 26.4 °C 19.8 °C 1012.1 hPa WNW 1.6 km/h 4.8 km/h 67% 0 mm BKN
13:30 26.3 °C 19.2 °C 1012.1 hPa Calm   4.8 km/h 65% 0 mm BKN
13:35 26.8 °C 19.4 °C 1012.1 hPa NNW 1.6 km/h 4.8 km/h 64% 0 mm BKN
13:40 27.1 °C 19.2 °C 1011.7 hPa Calm   3.2 km/h 62% 0 mm BKN
13:45 27 °C 19.3 °C 1012.1 hPa Calm   8 km/h 63% 0 mm BKN
13:50 26.8 °C 19.2 °C 1011.7 hPa NW 1.6 km/h 3.2 km/h 63% 0 mm BKN
13:55 26.4 °C 19.1 °C 1012.1 hPa NW 1.6 km/h 4.8 km/h 64% 0 mm BKN
14:00 26.5 °C 19.4 °C 1011.7 hPa NNW 1.6 km/h 4.8 km/h 65% 0 mm BKN
14:05 26.8 °C 18.9 °C 1012.1 hPa Calm   4.8 km/h 62% 0 mm BKN
14:10 27 °C 19.1 °C 1012.1 hPa NW 1.6 km/h 8 km/h 62% 0 mm BKN
14:15 27 °C 19.8 °C 1012.1 hPa Calm   4.8 km/h 65% 0 mm BKN
14:20 27.1 °C 19.4 °C 1011.7 hPa NW 1.6 km/h 9.7 km/h 63% 0 mm BKN
14:25 27.2 °C 19.3 °C 1012.1 hPa WNW 1.6 km/h 8 km/h 62% 0 mm BKN
14:30 27.3 °C 19.1 °C 1012.1 hPa NW 1.6 km/h 8 km/h 61% 0 mm BKN
14:35 27.2 °C 19.1 °C 1012.1 hPa Calm   4.8 km/h 61% 0 mm BKN
14:40 27.3 °C 19.6 °C 1011.7 hPa NNW 1.6 km/h 4.8 km/h 63% 0 mm BKN
14:45 26.9 °C 19.1 °C 1011.7 hPa Calm   4.8 km/h 62% 0 mm BKN
14:50 26.8 °C 18.7 °C 1011.7 hPa NNW 1.6 km/h 8 km/h 61% 0 mm BKN
14:55 26.3 °C 18.4 °C 1011.7 hPa Calm   9.7 km/h 62% 0 mm BKN
15:00 26 °C 18.7 °C 1012.1 hPa Calm   4.8 km/h 64% 0 mm BKN
15:05 25.9 °C 19.1 °C 1011.7 hPa NW 1.6 km/h 4.8 km/h 66% 0 mm BKN
15:10 25.9 °C 18.8 °C 1012.1 hPa North 1.6 km/h 8 km/h 65% 0 mm BKN
15:15 26 °C 19.2 °C 1012.1 hPa Calm   3.2 km/h 66% 0 mm BKN
15:20 26.1 °C 19.2 °C 1012.1 hPa NW 1.6 km/h 3.2 km/h 66% 0 mm BKN
15:25 25.7 °C 18.7 °C 1012.1 hPa Calm   9.7 km/h 65% 0 mm BKN
15:30 25.5 °C 18.7 °C 1012.1 hPa Calm   3.2 km/h 66% 0 mm BKN
15:35 25.5 °C 18.4 °C 1011.7 hPa Calm   8 km/h 65% 0 mm BKN
15:40 25.6 °C 19 °C 1011.7 hPa Calm   9.7 km/h 67% 0 mm BKN
15:45 25.6 °C 19 °C 1011.7 hPa Calm   3.2 km/h 67% 0 mm BKN
15:50 25.4 °C 18.6 °C 1011.7 hPa Calm   4.8 km/h 66% 0 mm BKN
15:55 25.2 °C 18.6 °C 1011.7 hPa Calm   3.2 km/h 67% 0 mm BKN
16:00 25 °C 18.9 °C 1011.7 hPa Calm   1.6 km/h 69% 0 mm BKN
16:05 25.1 °C 18.7 °C 1011.7 hPa WNW 1.6 km/h 4.8 km/h 68% 0 mm BKN
16:10 25.3 °C 18.9 °C 1011.7 hPa West 1.6 km/h 9.7 km/h 68% 0 mm BKN
16:15 25.5 °C 19.2 °C 1011.7 hPa Calm   9.7 km/h 68% 0 mm BKN
16:20 25.4 °C 18.6 °C 1011.7 hPa Calm   4.8 km/h 66% 0 mm BKN
16:25 25.4 °C 18.6 °C 1011.7 hPa WNW 1.6 km/h 8 km/h 66% 0 mm BKN
16:30 25.6 °C 18.5 °C 1011.7 hPa NW 1.6 km/h 3.2 km/h 65% 0 mm BKN
16:35 25.6 °C 18.8 °C 1011.7 hPa Calm   1.6 km/h 66% 0 mm BKN
16:40 25.5 °C 18.7 °C 1011.7 hPa Calm   8 km/h 66% 0 mm BKN
16:45 25.3 °C 18.7 °C 1011.7 hPa Calm   3.2 km/h 67% 0 mm BKN
16:50 25.1 °C 18.6 °C 1011.7 hPa Calm   8 km/h 67% 0 mm BKN
17:00 25.3 °C 18.9 °C 1011.7 hPa WNW 1.6 km/h 4.8 km/h 68% 0 mm BKN
17:10 25.2 °C 18.4 °C 1011.7 hPa NW 1.6 km/h 3.2 km/h 66% 0 mm BKN
17:15 25 °C 18.4 °C 1011.7 hPa NNW 1.6 km/h 3.2 km/h 67% 0 mm BKN
17:20 24.8 °C 18.3 °C 1012.1 hPa Calm   4.8 km/h 67% 0 mm BKN
17:25 24.8 °C 18.4 °C 1012.1 hPa Calm   3.2 km/h 68% 0 mm BKN
17:30 24.7 °C 18.7 °C 1012.1 hPa Calm   3.2 km/h 69% 0 mm BKN
17:35 24.8 °C 18.3 °C 1012.1 hPa Calm   3.2 km/h 67% 0 mm BKN
17:40 24.9 °C 18.4 °C 1012.1 hPa Calm   4.8 km/h 67% 0 mm BKN
17:45 24.9 °C 18.4 °C 1012.1 hPa Calm   1.6 km/h 67% 0 mm BKN
17:50 24.9 °C 18.8 °C 1012.1 hPa WNW 1.6 km/h 8 km/h 69% 0 mm BKN
17:55 24.7 °C 18.2 °C 1012.1 hPa Calm   1.6 km/h 67% 0 mm BKN
18:00 24.7 °C 18.4 °C 1012.4 hPa Calm   3.2 km/h 68% 0 mm BKN
18:05 24.6 °C 17.8 °C 1012.1 hPa Calm   3.2 km/h 66% 0 mm BKN
18:10 24.5 °C 18.2 °C 1012.1 hPa Calm   3.2 km/h 68% 0 mm BKN
18:15 24.4 °C 18.4 °C 1012.4 hPa Calm   3.2 km/h 69% 0 mm BKN
18:20 24.3 °C 18.3 °C 1012.4 hPa Calm   1.6 km/h 69% 0 mm BKN
18:25 24.2 °C 18.2 °C 1012.4 hPa Calm   1.6 km/h 69% 0 mm BKN
18:30 24.2 °C 18.3 °C 1012.4 hPa Calm   3.2 km/h 70% 0 mm BKN
18:35 24.1 °C 18.3 °C 1012.4 hPa Calm   1.6 km/h 70% 0 mm BKN
18:40 24.1 °C 18.2 °C 1012.4 hPa Calm   1.6 km/h 70% 0 mm BKN
18:45 24.1 °C 18 °C 1012.4 hPa Calm   1.6 km/h 69% 0 mm BKN
18:50 24.1 °C 18.2 °C 1012.8 hPa Calm   1.6 km/h 70% 0 mm BKN
18:55 24.1 °C 18 °C 1012.8 hPa Calm   4.8 km/h 69% 0 mm BKN
19:00 24.1 °C 18.2 °C 1012.8 hPa Calm   1.6 km/h 70% 0 mm BKN
19:05 23.9 °C 18.1 °C 1012.8 hPa Calm   1.6 km/h 70% 0 mm BKN
19:10 23.8 °C 18.3 °C 1012.8 hPa Calm     71% 0 mm BKN
19:15 23.7 °C 18.4 °C 1013.1 hPa Calm     72% 0 mm BKN
19:20 23.6 °C 18.3 °C 1013.1 hPa NW 1.6 km/h 3.2 km/h 72% 0 mm BKN
19:25 23.6 °C 18.2 °C 1013.1 hPa Calm   1.6 km/h 72% 0 mm BKN
19:30 23.5 °C 18.2 °C 1013.1 hPa Calm   1.6 km/h 72% 0 mm BKN
19:40 23.3 °C 18.2 °C 1013.1 hPa Calm   1.6 km/h 73% 0 mm BKN
19:45 23.2 °C 18.3 °C 1013.1 hPa Calm     74% 0 mm BKN
19:50 23.1 °C 18.4 °C 1013.1 hPa Calm     75% 0 mm BKN
19:55 23 °C 18.3 °C 1013.1 hPa Calm     75% 0 mm BKN
20:00 22.9 °C 18.2 °C 1013.1 hPa Calm     75% 0 mm BKN
20:05 22.8 °C 18.3 °C 1013.1 hPa Calm     76% 0 mm BKN
20:10 22.7 °C 18 °C 1013.4 hPa Calm   3.2 km/h 75% 0 mm BKN
20:15 22.7 °C 18.1 °C 1013.8 hPa WNW 1.6 km/h 4.8 km/h 75% 0 mm BKN
20:20 22.4 °C 18.1 °C 1013.8 hPa SW 1.6 km/h 8 km/h 77% 0 mm BKN
20:25 21.9 °C 18.3 °C 1013.8 hPa Calm   3.2 km/h 80% 0 mm BKN
20:30 21.4 °C 18.4 °C 1014.1 hPa Calm   3.2 km/h 83% 0 mm BKN
20:40 20.6 °C 18.3 °C 1014.1 hPa Calm   3.2 km/h 87% 0 mm BKN
20:45 20.3 °C 18.3 °C 1014.4 hPa Calm   1.6 km/h 88% 0.25 mm BKN
20:50 20.2 °C 18.1 °C 1014.4 hPa Calm   1.6 km/h 88% 0 mm BKN
20:55 20 °C 18.2 °C 1014.4 hPa Calm   1.6 km/h 89% 0 mm BKN
21:00 19.8 °C 18 °C 1014.4 hPa Calm   3.2 km/h 89% 0 mm BKN
21:05 19.8 °C 18.1 °C 1014.8 hPa Calm   1.6 km/h 90% 0 mm -RA
21:10 19.6 °C 17.8 °C 1014.8 hPa Calm   1.6 km/h 89% 0 mm -RA
21:15 19.5 °C 17.8 °C 1014.8 hPa Calm   1.6 km/h 90% 0 mm -RA
21:20 19.4 °C 17.7 °C 1015.1 hPa Calm   1.6 km/h 90% 0 mm BKN
21:30 19.2 °C 17.6 °C 1015.1 hPa Calm   3.2 km/h 90% 0 mm BKN
21:40 19.1 °C 17.4 °C 1015.1 hPa Calm   1.6 km/h 90% 0 mm BKN
21:45 19.1 °C 17.6 °C 1015.1 hPa Calm   1.6 km/h 91% 0 mm BKN
21:50 19 °C 17.3 °C 1015.1 hPa Calm   1.6 km/h 90% 0 mm BKN
21:55 18.9 °C 17.2 °C 1015.5 hPa Calm   1.6 km/h 90% 0 mm BKN
22:00 18.8 °C 17.1 °C 1015.5 hPa West 1.6 km/h 3.2 km/h 90% 0 mm BKN
22:05 18.8 °C 17.1 °C 1015.5 hPa Calm   1.6 km/h 90% 0 mm BKN
22:10 18.7 °C 17.1 °C 1015.5 hPa Calm   1.6 km/h 90% 0 mm BKN
22:15 18.7 °C 17 °C 1015.5 hPa Calm   1.6 km/h 90% 0 mm BKN
22:20 18.7 °C 17 °C 1015.5 hPa Calm   1.6 km/h 90% 0 mm SCT
22:25 18.6 °C 16.9 °C 1015.5 hPa Calm   1.6 km/h 90% 0 mm SCT
22:30 18.6 °C 16.9 °C 1015.5 hPa Calm   1.6 km/h 90% 0 mm SCT
22:40 18.3 °C 16.5 °C 1015.8 hPa WNW 1.6 km/h 3.2 km/h 89% 0 mm SCT
22:45 18.3 °C 16.4 °C 1015.8 hPa Calm   1.6 km/h 89% 0 mm SCT
22:50 18.2 °C 16.4 °C 1015.8 hPa Calm   1.6 km/h 89% 0 mm SCT
22:55 18.2 °C 16.4 °C 1015.8 hPa Calm   1.6 km/h 89% 0 mm SCT
23:00 18.2 °C 16.4 °C 1015.8 hPa Calm   1.6 km/h 89% 0 mm SCT
23:05 18.2 °C 16.3 °C 1015.8 hPa Calm   1.6 km/h 89% 0 mm SCT
23:10 18.2 °C 16.3 °C 1016.1 hPa Calm   1.6 km/h 89% 0 mm SCT
23:25 17.9 °C 16.1 °C 1016.1 hPa Calm     89% 0 mm SCT
23:30 17.8 °C 16 °C 1016.1 hPa Calm     89% 0 mm SCT
23:35 17.8 °C 16.1 °C 1016.5 hPa Calm     90% 0 mm SCT
23:45 17.7 °C 16 °C 1016.1 hPa Calm     90% 0 mm SCT
23:50 17.6 °C 15.9 °C 1016.1 hPa Calm     90% 0 mm SCT
23:55 17.6 °C 16.1 °C 1016.1 hPa Calm     91% 0 mm SCT
Piedmont Bend
Compliments of Weather Underground - 4 mb